Satellite-Ground Cal/Val Region Overpasses Predictions

Prediction of Satellite NPP Overpassing Cal/Val Region: PacNW

Region Location: (Latitude: 10.00, Longitude: 139.50) to (Latitude: 22.70, Longitude: 165.60).

Table of predicted overpasses for the next 14.0 days since TLE Epoch: 10/12/2014
Interval Starting Time Starting Location Ending Time Ending Location
1 10/12/2014 15:26:31 ( 22.67, 155.44) 10/12/2014 15:30:06 ( 10.05, 152.43)
2 10/13/2014 02:35:37 ( 10.01, 162.95) 10/13/2014 02:39:13 ( 22.69, 159.93)
3 10/13/2014 15:07:30 ( 22.68, 160.20) 10/13/2014 15:11:06 ( 10.00, 157.18)
4 10/14/2014 02:19:09 ( 18.98, 165.60) 10/14/2014 02:20:12 ( 22.68, 164.69)
5 10/14/2014 03:58:07 ( 10.06, 142.32) 10/14/2014 04:01:29 ( 21.92, 139.50)
6 10/14/2014 14:48:30 ( 22.69, 164.95) 10/14/2014 14:52:06 ( 10.01, 161.93)
7 10/14/2014 16:30:00 ( 22.69, 139.58) 10/14/2014 16:30:05 ( 22.40, 139.51)
8 10/15/2014 03:39:07 ( 10.05, 147.08) 10/15/2014 03:42:42 ( 22.67, 144.07)
9 10/15/2014 16:11:00 ( 22.64, 144.32) 10/15/2014 16:14:35 ( 10.02, 141.31)
10 10/16/2014 03:20:06 ( 10.04, 151.83) 10/16/2014 03:23:41 ( 22.66, 148.82)
11 10/16/2014 15:52:00 ( 22.65, 149.08) 10/16/2014 15:55:35 ( 10.03, 146.07)
12 10/17/2014 03:01:06 ( 10.03, 156.59) 10/17/2014 03:04:41 ( 22.65, 153.58)
13 10/17/2014 15:32:59 ( 22.66, 153.83) 10/17/2014 15:36:34 ( 10.04, 150.82)
14 10/18/2014 02:42:05 ( 10.02, 161.34) 10/18/2014 02:45:40 ( 22.64, 158.34)
15 10/18/2014 15:13:59 ( 22.67, 158.59) 10/18/2014 15:17:34 ( 10.05, 155.58)
16 10/19/2014 02:23:42 ( 12.19, 165.60) 10/19/2014 02:26:41 ( 22.70, 163.08)
17 10/19/2014 04:04:35 ( 10.02, 140.72) 10/19/2014 04:06:04 ( 15.24, 139.51)
18 10/19/2014 14:54:58 ( 22.67, 163.34) 10/19/2014 14:58:33 ( 10.05, 160.33)
19 10/20/2014 03:45:34 ( 10.01, 145.48) 10/20/2014 03:49:10 ( 22.69, 142.46)
20 10/20/2014 14:38:56 ( 12.23, 165.59) 10/20/2014 14:39:34 ( 10.00, 165.08)
21 10/20/2014 16:17:28 ( 22.68, 142.72) 10/20/2014 16:21:04 ( 10.00, 139.70)
22 10/21/2014 03:26:34 ( 10.00, 150.23) 10/21/2014 03:30:10 ( 22.69, 147.21)
23 10/21/2014 15:58:28 ( 22.69, 147.48) 10/21/2014 16:02:04 ( 10.01, 144.46)
24 10/22/2014 03:07:33 ( 10.00, 154.99) 10/22/2014 03:11:09 ( 22.68, 151.97)
25 10/22/2014 15:39:27 ( 22.69, 152.23) 10/22/2014 15:43:03 ( 10.01, 149.21)
26 10/23/2014 02:48:34 ( 10.06, 159.73) 10/23/2014 02:52:09 ( 22.68, 156.72)
27 10/23/2014 15:20:27 ( 22.69, 156.99) 10/23/2014 15:24:03 ( 10.02, 153.97)
28 10/24/2014 02:29:33 ( 10.05, 164.48) 10/24/2014 02:33:08 ( 22.68, 161.48)
29 10/24/2014 15:01:26 ( 22.70, 161.74) 10/24/2014 15:05:02 ( 10.02, 158.72)
30 10/25/2014 03:52:03 ( 10.05, 143.86) 10/25/2014 03:55:38 ( 22.67, 140.86)
31 10/25/2014 14:43:29 ( 19.01, 165.59) 10/25/2014 14:46:02 ( 10.02, 163.48)
32 10/25/2014 16:23:56 ( 22.70, 141.12) 10/25/2014 16:25:49 ( 16.07, 139.51)


NCC Satellite Cal/Val Overpasses Prediction Service
